This demonstration page uses our WeatherBlox Daily Observations layout. Learn more.

Left ArrowRight Arrow

31.84235, -102.49876

Hourly Observations for May 24, 2022

Temp ( °F °C ) Dew Point ( °F °C ) Humidity (%) Winds ( mph kmh ) Pressure ( in mb ) Visibility ( mi km ) Precip ( " mm )
12:13 am 00:13 Mostly Cloudy with Nearby Thunderstorms 70 21.1 60 15.6 71 71 SSE 25 41 29.69 1005 10 16 0.00 0.00
12:28 am 00:28 Cloudy with Light Rain 69 20.6 61 16.1 76 76 S 15 24 29.73 1007 10 16 0.00 0.00
12:53 am 00:53 Cloudy with Light Rain 68 20 62 16.7 81 81 S 25 41 29.72 1007 6 10 0.01 0.25
1:53 am 01:53 Clear 67 19.4 62 16.7 84 84 SE 22 35 29.63 1003 9 14 0.05 1.27
2:53 am 02:53 Clear 66 18.9 60 15.6 81 81 S 18 30 29.62 1003 10 16 0.00 0.00
3:53 am 03:53 Clear 65 18.3 59 15 81 81 S 21 33 29.62 1003 10 16 0.00 0.00
4:53 am 04:53 Clear 65 18.3 59 15 81 81 S 17 28 29.62 1003 10 16 0.00 0.00
5:53 am 05:53 Clear 65 18.3 59 15 81 81 S 14 22 29.62 1003 10 16 0.00 0.00
6:53 am 06:53 Mostly Sunny 65 18.3 59 15 81 81 VRB 3 6 29.65 1004 10 16 0.00 0.00
7:06 am 07:06 Mostly Cloudy 65 18.3 59 15 81 81 NE 7 11 29.69 1005 10 16 0.00 0.00
7:53 am 07:53 Cloudy 65 18.3 59 15 81 81 E 6 9 29.67 1005 10 16 0.00 0.00
8:01 am 08:01 Cloudy 65 18.3 60 15.6 84 84 E 5 7 29.69 1005 10 16 0.00 0.00
8:39 am 08:39 Cloudy 66 18.9 60 15.6 81 81 E 6 9 29.68 1005 10 16 0.00 0.00
8:53 am 08:53 Cloudy 66 18.9 60 15.6 81 81 ENE 5 7 29.65 1004 10 16 0.00 0.00
9:53 am 09:53 Cloudy 68 20 61 16.1 78 78 ENE 7 11 29.67 1005 9 14 0.00 0.00
10:53 am 10:53 Cloudy 70 21.1 60 15.6 71 71 E 8 13 29.67 1005 9 14 0.00 0.00
11:15 am 11:15 Cloudy 70 21.1 60 15.6 71 71 NE 12 19 29.66 1004 10 16 0.00 0.00
11:53 am 11:53 Partly Cloudy 71 21.7 60 15.6 68 68 NE 12 19 29.67 1005 10 16 0.00 0.00
12:53 pm 12:53 Mostly Sunny 74 23.3 59 15 60 60 NNE 7 11 29.66 1005 10 16 0.00 0.00
1:53 pm 13:53 Sunny 76 24.4 58 14.4 54 54 NE 12 19 29.64 1004 10 16 0.00 0.00
2:53 pm 14:53 Partly Cloudy 78 25.6 58 14.4 50 50 VRB 5 7 29.62 1003 10 16 0.00 0.00
3:53 pm 15:53 Sunny 80 26.7 56 13.3 44 44 VRB 6 9 29.58 1002 10 16 0.00 0.00
4:53 pm 16:53 Sunny 79 26.1 54 12.2 42 42 SSE 9 15 29.54 1000 10 16 0.00 0.00
5:21 pm 17:21 Sunny with Nearby Thunderstorms 79 26.1 55 12.8 44 44 NNE 14 22 29.52 1000 10 16 0.00 0.00
5:30 pm 17:30 Hazy 67 19.4 55 12.8 66 66 NE 23 37 29.59 1002 5 8 0.00 0.00
5:40 pm 17:40 Hazy 68 20 55 12.8 63 63 NE 26 43 29.61 1003 6 10 0.00 0.00
5:53 pm 17:53 Partly Cloudy with Nearby Thunderstorms 67 19.4 56 13.3 68 68 NNE 22 35 29.60 1003 9 14 0.00 0.00
6:07 pm 18:07 Mostly Sunny 68 20 55 12.8 63 63 N 28 44 29.63 1003 9 14 0.00 0.00
6:18 pm 18:18 Mostly Cloudy with Thunderstorms 62 16.7 50 10 65 65 ENE 14 22 29.66 1004 3 4 0.03 0.76
6:27 pm 18:27 Mostly Cloudy with Thunderstorms 60 15.6 50 10 70 70 N 13 20 29.72 1006 5 8 0.04 1.02
6:53 pm 18:53 Mostly Cloudy with Light Rain 55 12.8 49 9.4 80 80 N 39 63 29.74 1007 10 16 0.05 1.27
7:01 pm 19:01 Mostly Cloudy with Nearby Thunderstorms 55 12.8 49 9.4 80 80 N 29 46 29.80 1009 10 16 0.00 0.00
7:35 pm 19:35 Windy with Storms Likely 55 12.8 48 8.9 77 77 NNE 35 56 29.73 1007 5 8 0.03 0.76
7:50 pm 19:50 Mostly Cloudy with Light Rain 55 13 48 9 77 77 NNE 30 48 29.72 1006 10 16 0.03 0.76
7:53 pm 19:53 Partly Cloudy 56 13.3 48 8.9 75 75 NNE 29 46 29.68 1005 10 16 0.03 0.76
8:53 pm 20:53 Clear 56 13.3 48 8.9 75 75 NE 15 24 29.67 1005 10 16 0.00 0.00
9:53 pm 21:53 Clear 56 13.3 48 8.9 75 75 N 14 22 29.67 1005 10 16 0.00 0.00
10:53 pm 22:53 Clear 55 12.8 47 8.3 74 74 NNE 17 28 29.75 1008 10 16 0.00 0.00
11:53 pm 23:53 Clear 54 12.2 47 8.3 77 77 NNE 10 17 29.84 1011 10 16 0.00 0.00

Powered by AerisWeather